This demonstration page uses our WeatherBlox Daily Observations layout. Learn more.

Left ArrowRight Arrow

39.95238, -75.16362

Hourly Observations for January 21, 2022

Temp ( °F °C ) Dew Point ( °F °C ) Humidity (%) Winds ( mph kmh ) Pressure ( in mb ) Visibility ( mi km ) Precip ( " mm )
12:54 am 00:54 Mostly Cloudy 21 -6.1 4 -15.6 47 47 N 14 22 30.42 1030 10 16 0.00 0.00
1:54 am 01:54 Partly Cloudy 20 -6.7 3 -16.1 48 48 N 16 26 30.43 1030 10 16 0.00 0.00
2:54 am 02:54 Mostly Cloudy 19 -7.2 3 -16.1 49 49 N 18 30 30.44 1031 10 16 0.00 0.00
3:54 am 03:54 Mostly Cloudy 19 -7.2 4 -15.6 51 51 N 18 30 30.45 1031 10 16 0.00 0.00
4:54 am 04:54 Partly Cloudy 18 -7.8 3 -16.1 52 52 N 15 24 30.47 1032 10 16 0.00 0.00
5:54 am 05:54 Partly Cloudy 17 -8.3 3 -16.1 54 54 N 12 19 30.49 1033 10 16 0.00 0.00
6:54 am 06:54 Partly Cloudy 17 -8.3 4 -15.6 56 56 N 16 26 30.51 1033 10 16 0.00 0.00
7:54 am 07:54 Mostly Cloudy 18 -7.8 3 -16.1 52 52 NNE 13 20 30.54 1034 10 16 0.00 0.00
8:54 am 08:54 Mostly Cloudy 19 -7.2 3 -16.1 49 49 N 16 26 30.55 1034 10 16 0.00 0.00
9:54 am 09:54 Mostly Cloudy 20 -6.7 3 -16.1 48 48 NNE 13 20 30.57 1035 10 16 0.00 0.00
10:54 am 10:54 Mostly Cloudy 23 -5 2 -16.7 40 40 NNE 13 20 30.56 1035 10 16 0.00 0.00
11:54 am 11:54 Mostly Cloudy 23 -5 1 -17.2 38 38 NE 14 22 30.54 1034 10 16 0.00 0.00
12:54 pm 12:54 Mostly Cloudy 25 -3.9 1 -17.2 35 35 N 10 17 30.52 1034 10 16 0.00 0.00
1:54 pm 13:54 Mostly Cloudy 27 -2.8 4 -15.6 37 37 NNE 12 19 30.50 1033 10 16 0.00 0.00
2:54 pm 14:54 Mostly Cloudy 27 -2.8 4 -15.6 37 37 NNE 10 17 30.50 1033 10 16 0.00 0.00
3:54 pm 15:54 Mostly Cloudy 26 -3.3 3 -16.1 37 37 N 10 17 30.51 1033 10 16 0.00 0.00
4:54 pm 16:54 Mostly Cloudy 26 -3.3 2 -16.7 35 35 NE 8 13 30.51 1033 10 16 0.00 0.00
5:54 pm 17:54 Mostly Cloudy 26 -3.3 2 -16.7 35 35 NNE 9 15 30.52 1034 10 16 0.00 0.00
6:54 pm 18:54 Cloudy 25 -3.9 -1 -18.3 32 32 NNE 12 19 30.54 1034 10 16 0.00 0.00
7:54 pm 19:54 Cloudy 25 -3.9 -1 -18.3 32 32 NE 14 22 30.53 1034 10 16 0.00 0.00
8:54 pm 20:54 Cloudy 25 -3.9 -1 -18.3 32 32 NE 10 17 30.53 1034 10 16 0.00 0.00
9:54 pm 21:54 Cloudy 24 -4.4 -3 -19.4 30 30 NE 14 22 30.52 1034 10 16 0.00 0.00
10:54 pm 22:54 Cloudy 23 -5 -3 -19.4 32 32 NE 10 17 30.52 1033 10 16 0.00 0.00
11:54 pm 23:54 Mostly Cloudy 23 -5 -1 -18.3 35 35 NNE 13 20 30.49 1033 10 16 0.00 0.00

Powered by AerisWeather